Flag for Canada Weather past 2 weeks in Churchill, Manitoba, Canada

Now
41 °F

Light rain. Fog.


Feels Like: 35 °F
Forecast: 36 / 44 °F
Wind: 9 mph from East

Location: Churchill

Current Time: Oct 1, 2014 at 10:24:37 PM

Latest Report: Oct 1, 2014 at 10:00 PM


Visibility: 5 mi

Pressure: 29.34 "Hg

Humidity: 100%

Dew point: 41 °F

Location of ChurchillLocation

Historic Weather in Churchill — Graph

°F

Churchill temperature yesterday

Maximum temperature yesterday: 45 °F (at 9:00 PM)
Minimum temperature yesterday: 39 °F (at 4:00 AM)
Average temperature yesterday: 41 °F

Past Weeks' High & Low Weather Summary

 TemperatureHumidityPressure
High64 °F (Sep 23, 4:00 PM)100% (Sep 18, 7:00 PM)30.52 "Hg (Sep 18, 7:00 PM)
Low28 °F (Sep 17, 10:00 PM)49% (Sep 28, 4:00 PM)29.35 "Hg (Oct 1, 9:00 PM)
Average40 °F86%29.91 "Hg
* Reported Sep 16 9:00 PM — Oct 1 9:00 PM, Churchill, Weather by CustomWeather, © 2014

Note: Actual official high and low records may vary slightly from our data, if they occured in-between our weather recording intervals... More about our weather records

Advertising

Churchill weather history for previous 24 hours

 ConditionsComfort  
Time TempWeatherWind HumidityBarometerVisibility
9:00 PM
Oct 1
43 °FFog.10 mph93%29.35 "Hg6 mi
8:00 PM43 °FLight rain. Low clouds.12 mph93%29.38 "Hg15 mi
7:00 PM41 °FLight rain. Low clouds.13 mph100%29.40 "Hg15 mi
6:00 PM41 °FLight rain. Mostly cloudy.9 mph100%29.41 "Hg15 mi
5:00 PM43 °FLight rain. Low clouds.12 mph93%29.43 "Hg15 mi
4:00 PM43 °FLight rain. Mostly cloudy.15 mph93%29.43 "Hg12 mi
3:00 PM46 °FMostly cloudy.15 mph87%29.48 "Hg15 mi
2:00 PM46 °FOvercast.16 mph87%29.48 "Hg15 mi
1:00 PM46 °FOvercast.20 mph87%29.52 "Hg15 mi
12:00 PM45 °FLow clouds.14 mph93%29.55 "Hg15 mi
11:50 AM45 °FMostly cloudy.16 mph93%29.55 "Hg15 mi
11:00 AM43 °FLight rain. Mostly cloudy.14 mph93%29.57 "Hg15 mi
10:00 AM43 °FLight rain. Mostly cloudy.14 mph93%29.59 "Hg15 mi
9:00 AM43 °FLight rain. Mostly cloudy.12 mph93%29.61 "Hg15 mi
8:00 AM43 °FLight rain. Overcast.14 mph93%29.61 "Hg15 mi
7:00 AM43 °FLight rain. Overcast.13 mph93%29.63 "Hg15 mi
6:00 AM43 °FLight rain. Overcast.14 mph93%29.65 "Hg10 mi
5:00 AM43 °FLight rain. Fog.12 mph93%29.66 "Hg6 mi
4:00 AM43 °FOvercast.15 mph93%29.67 "Hg4 mi
3:00 AM43 °FLight rain. Overcast.14 mph93%29.70 "Hg10 mi
2:00 AM43 °FLight rain. Mostly cloudy.14 mph93%29.71 "Hg15 mi
1:00 AM43 °FLight rain. Overcast.14 mph93%29.74 "Hg15 mi
12:00 AM43 °FLight rain. Overcast.14 mph93%29.76 "Hg15 mi
11:00 PM
Sep 30
45 °FLight rain. Overcast.16 mph87%29.76 "Hg15 mi
10:00 PM45 °FLight rain. Overcast.12 mph87%29.79 "Hg15 mi
Weather by CustomWeather, © 2014

See weather overviewHow to use our weather pages